Log Lane Village, CO

4:50 AM MST on February 10, 2016 (GMT -0700)
Fort Morgan

Weather History for KFMM - May, 2013

Change the Weather History Date:

Thursday, May 23, 2013

  Actual Average (KAKO) Record (KAKO)
Temperature  
Mean Temperature 53 °F 59 °F  
Max Temperature 61 °F 73 °F 94 °F (1989)
Min Temperature 45 °F 46 °F 35 °F (1971)
Degree Days  
Heating Degree Days 12    
Month to date heating degree days  
Cooling Degree Days 0    
Month to date cooling degree days  
Growing Degree Days 3 (Base 50)    
Moisture  
Dew Point 47 °F    
Average Humidity 76    
Maximum Humidity 95    
Minimum Humidity 62    
Precipitation  
Precipitation 0.00 in 0.11 in 1.82 in (1965)
Month to date precipitation 2.09  
Year to date precipitation 5.35  
Sea Level Pressure  
Sea Level Pressure 30.11 in    
Wind  
Wind Speed 16 mph (ESE)    
Max Wind Speed 28 mph    
Max Gust Speed 36 mph    
Visibility 9 miles    
Events Thunderstorm    
T = Trace of Precipitation, MM = Missing Value Source: NWS Daily Summary

Daily Weather History Graph

Daily Weather History Graph

Search for Another Location

Airport or City:

Trip Planner

Search our weather history database for the weather conditions in past years. The results will help you decide how hot, cold, wet, or windy it might be!

Date:

Astronomy

May. 23, 2013 Rise Set
Actual Time 5:32 AM MDT 8:12 PM MDT
Civil Twilight 5:00 AM MDT 8:43 PM MDT
Nautical Twilight 4:21 AM MDT 9:23 PM MDT
Astronomical Twilight 3:36 AM MDT 10:08 PM MDT
Moon 6:47 PM MDT (5/23) 4:19 AM MDT (5/23)
Length of Visible Light 15h 43m
Length of Day
14h 39m
Waxing Gibbous, 97% of the Moon is Illuminated
May 23
Waxing Gibbous
May 24
Full
May 31
Last Quarter
Jun 8
New
Jun 16
First Quarter

Hourly Weather History & Observations

Time (MDT) Temp. Windchill Dew Point Humidity Pressure Visibility Wind Dir Wind Speed Gust Speed Precip Events Conditions
12:15 AM 50.0 °F - 43.9 °F 79% 30.11 in 10.0 mi ENE 16.1 mph - N/A   Overcast
12:35 AM 49.3 °F - 44.1 °F 82% 30.12 in 10.0 mi East 16.1 mph 21.9 mph N/A   Mostly Cloudy
12:55 AM 48.7 °F - 44.1 °F 84% 30.13 in 10.0 mi East 12.7 mph 18.4 mph N/A   Scattered Clouds
1:15 AM 48.2 °F - 43.7 °F 84% 30.14 in 10.0 mi East 13.8 mph - N/A   Scattered Clouds
1:35 AM 48.2 °F - 43.7 °F 84% 30.14 in 10.0 mi East 11.5 mph - N/A   Mostly Cloudy
1:55 AM 48.2 °F - 43.7 °F 84% 30.14 in 10.0 mi ESE 15.0 mph - N/A   Overcast
2:15 AM 48.0 °F - 43.7 °F 85% 30.14 in 10.0 mi ESE 13.8 mph 18.4 mph N/A Thunderstorm Overcast
2:35 AM 48.2 °F - 43.7 °F 84% 30.13 in 10.0 mi East 15.0 mph - N/A   Overcast
2:55 AM 47.8 °F - 43.7 °F 86% 30.13 in 10.0 mi East 12.7 mph - N/A   Overcast
3:15 AM 47.7 °F - 43.9 °F 87% 30.13 in 10.0 mi ESE 16.1 mph 20.7 mph N/A   Overcast
3:35 AM 47.5 °F - 44.1 °F 88% 30.13 in 10.0 mi East 13.8 mph 19.6 mph N/A   Overcast
3:55 AM 47.3 °F - 43.9 °F 88% 30.13 in 10.0 mi East 13.8 mph - N/A   Overcast
4:15 AM 46.9 °F - 43.9 °F 89% 30.15 in 10.0 mi East 11.5 mph - N/A   Overcast
4:35 AM 46.9 °F - 44.2 °F 90% 30.15 in 10.0 mi East 9.2 mph - N/A   Overcast
4:55 AM 46.8 °F - 44.1 °F 90% 30.16 in 10.0 mi East 8.1 mph - N/A   Overcast
5:15 AM 46.6 °F - 44.2 °F 92% 30.16 in 7.0 mi East 8.1 mph - N/A   Overcast
5:35 AM 46.4 °F 41.9 °F 44.1 °F 92% 30.16 in 5.0 mi East 9.2 mph - N/A   Overcast
5:55 AM 46.0 °F 40.2 °F 44.2 °F 93% 30.16 in 4.0 mi East 12.7 mph - N/A   Overcast
6:15 AM 45.9 °F 40.4 °F 44.6 °F 95% 30.16 in 2.0 mi East 11.5 mph - N/A   Overcast
6:35 AM 45.9 °F 39.7 °F 44.6 °F 95% 30.16 in 2.0 mi East 13.8 mph - N/A   Overcast
6:55 AM 45.9 °F 39.7 °F 44.6 °F 95% 30.17 in 1.8 mi East 13.8 mph - N/A   Overcast
7:15 AM 45.9 °F 40.8 °F 44.6 °F 95% 30.17 in 1.5 mi East 10.4 mph - N/A   Overcast
7:35 AM 46.0 °F 40.2 °F 44.8 °F 95% 30.17 in 1.5 mi East 12.7 mph - N/A   Overcast
7:55 AM 46.4 °F 40.7 °F 45.1 °F 95% 30.17 in 1.5 mi East 12.7 mph - N/A   Overcast
8:15 AM 46.9 °F - 45.7 °F 95% 30.17 in 2.0 mi East 13.8 mph - N/A   Overcast
8:35 AM 47.3 °F - 45.7 °F 94% 30.17 in 1.8 mi East 12.7 mph - N/A   Overcast
8:55 AM 47.5 °F - 45.5 °F 93% 30.17 in 4.0 mi East 12.7 mph - N/A   Overcast
9:15 AM 49.1 °F - 45.7 °F 88% 30.17 in 10.0 mi East 11.5 mph - N/A   Overcast
9:35 AM 49.6 °F - 45.5 °F 86% 30.16 in 10.0 mi East 12.7 mph 17.3 mph N/A   Overcast
9:55 AM 51.3 °F - 45.7 °F 81% 30.15 in 10.0 mi East 16.1 mph - N/A   Overcast
10:15 AM 53.2 °F - 46.0 °F 77% 30.15 in 10.0 mi ESE 16.1 mph 21.9 mph N/A   Overcast
10:35 AM 54.7 °F - 45.9 °F 72% 30.15 in 10.0 mi ESE 17.3 mph - N/A   Overcast
10:55 AM 57.6 °F - 46.4 °F 66% 30.14 in 10.0 mi ESE 15.0 mph 24.2 mph N/A   Mostly Cloudy
11:15 AM 58.1 °F - 46.2 °F 65% 30.14 in 10.0 mi ESE 18.4 mph 24.2 mph N/A   Mostly Cloudy
11:35 AM 59.5 °F - 46.9 °F 63% 30.13 in 10.0 mi ESE 17.3 mph 25.3 mph N/A   Overcast
11:55 AM 60.8 °F - 47.5 °F 62% 30.12 in 10.0 mi ESE 20.7 mph 27.6 mph N/A   Overcast
12:15 PM 60.1 °F - 46.9 °F 62% 30.12 in 10.0 mi ESE 20.7 mph 27.6 mph N/A   Overcast
12:35 PM 59.7 °F - 47.1 °F 63% 30.11 in 10.0 mi ESE 20.7 mph 27.6 mph N/A   Overcast
12:55 PM 59.4 °F - 47.3 °F 64% 30.10 in 10.0 mi ESE 20.7 mph 27.6 mph N/A   Overcast
1:15 PM 59.9 °F - 47.3 °F 63% 30.11 in 10.0 mi ESE 18.4 mph 27.6 mph N/A   Overcast
1:35 PM 60.1 °F - 47.5 °F 63% 30.10 in 10.0 mi ESE 20.7 mph 26.5 mph N/A   Overcast
1:55 PM 59.0 °F - 47.5 °F 66% 30.10 in 10.0 mi ESE 21.9 mph 27.6 mph N/A   Overcast
2:15 PM 60.4 °F - 47.7 °F 63% 30.09 in 10.0 mi ESE 24.2 mph 31.1 mph N/A   Overcast
2:35 PM 60.4 °F - 47.7 °F 63% 30.09 in 10.0 mi ESE 24.2 mph 31.1 mph N/A   Overcast
2:55 PM 60.1 °F - 48.2 °F 65% 30.09 in 10.0 mi ESE 25.3 mph 33.4 mph N/A   Overcast
3:15 PM 60.6 °F - 48.4 °F 64% 30.07 in 10.0 mi ESE 25.3 mph 33.4 mph N/A   Overcast
3:35 PM 59.7 °F - 47.5 °F 64% 30.08 in 10.0 mi ESE 26.5 mph 35.7 mph N/A   Overcast
3:55 PM 58.6 °F - 47.5 °F 66% 30.07 in 10.0 mi ESE 27.6 mph 34.5 mph N/A   Overcast
4:15 PM 58.3 °F - 47.5 °F 67% 30.07 in 10.0 mi ESE 26.5 mph 31.1 mph N/A   Overcast
4:35 PM 58.5 °F - 48.0 °F 68% 30.07 in 10.0 mi SE 19.6 mph 33.4 mph N/A   Overcast
4:55 PM 59.5 °F - 47.7 °F 65% 30.07 in 10.0 mi SE 24.2 mph 31.1 mph N/A   Overcast
5:15 PM 60.3 °F - 48.0 °F 64% 30.07 in 10.0 mi SE 20.7 mph 29.9 mph N/A   Overcast
5:35 PM 61.0 °F - 48.4 °F 63% 30.07 in 10.0 mi SSE 21.9 mph 27.6 mph N/A   Overcast
5:55 PM 60.8 °F - 48.9 °F 65% 30.06 in 10.0 mi SSE 20.7 mph 26.5 mph N/A   Overcast
6:15 PM 61.0 °F - 48.9 °F 64% 30.06 in 10.0 mi SE 18.4 mph 26.5 mph N/A   Overcast
6:35 PM 61.0 °F - 48.9 °F 64% 30.06 in 10.0 mi SE 13.8 mph 25.3 mph N/A   Overcast
6:55 PM 61.0 °F - 48.4 °F 63% 30.06 in 10.0 mi SE 17.3 mph 24.2 mph N/A   Overcast
7:15 PM 61.0 °F - 48.4 °F 63% 30.06 in 10.0 mi SE 16.1 mph 23.0 mph N/A   Overcast
7:35 PM 61.0 °F - 48.4 °F 63% 30.06 in 10.0 mi SSE 15.0 mph - N/A   Overcast
7:55 PM 60.8 °F - 48.7 °F 64% 30.06 in 10.0 mi SSE 15.0 mph 20.7 mph N/A   Overcast
8:15 PM 60.3 °F - 48.2 °F 64% 30.06 in 10.0 mi SE 18.4 mph - N/A   Overcast
8:35 PM 59.9 °F - 48.2 °F 65% 30.06 in 10.0 mi SSE 18.4 mph 24.2 mph N/A   Overcast
8:55 PM 59.4 °F - 48.2 °F 67% 30.06 in 10.0 mi SE 16.1 mph 19.6 mph N/A   Overcast
9:15 PM 59.2 °F - 48.6 °F 68% 30.07 in 10.0 mi SE 20.7 mph 25.3 mph N/A   Overcast
9:35 PM 58.3 °F - 48.6 °F 70% 30.07 in 10.0 mi SE 17.3 mph 23.0 mph N/A   Overcast
9:55 PM 57.6 °F - 49.1 °F 73% 30.08 in 10.0 mi ESE 18.4 mph 21.9 mph N/A   Overcast
10:15 PM 57.2 °F - 49.3 °F 75% 30.08 in 10.0 mi ESE 21.9 mph 28.8 mph N/A   Overcast
10:35 PM 56.7 °F - 50.0 °F 78% 30.07 in 10.0 mi ESE 19.6 mph 27.6 mph N/A   Mostly Cloudy
10:55 PM 55.9 °F - 50.4 °F 82% 30.07 in 10.0 mi SE 19.6 mph 29.9 mph N/A   Overcast
11:15 PM 56.3 °F - 50.5 °F 81% 30.08 in 10.0 mi SE 18.4 mph 25.3 mph N/A   Overcast
11:35 PM 56.5 °F - 50.9 °F 82% 30.08 in 10.0 mi SE 19.6 mph 26.5 mph N/A   Overcast